DECAYED

METEOR 2-6 DEB, 38837 (Decayed)

Orbit data source: Space-Track

METEOR 2-6 DEB, 38837 was space debris in LEO originally from a launch on Tue, 09 Sep 1980 UTC launched from the Plesetsk Missile And Space Complex (PKMTR). Debris objects in space refer to the collection of defunct objects orbiting the Earth. Examples of debris include non-operational satellites, rocket bodies, and fragments generated from explosions, collisions, or faulty payload assembly.

Not visible in the next 10 days
Identifier
38837, 1980-073P
Orbit
Decayed
Country
Flag of CISCIS
Related business
Manufacturer
Unknown
Mission
Decayed spacecraft
Bus & Motor
Unknown
Mass
Unknown
Launch date (UTC)
1980-09-09 (46 years ago)
Launch vehicle
Unknown
Launch site
Plesetsk Missile And Space Complex (PKMTR)
Object type
Payload
Rocket body
Debris
Shape & HBR
Unknown shape, 0.050 m
Radar Cross Section
Medium (>0.1 m² and <1 m²)

Expand to show TLE details & history
Last TLE update: 10 months ago

TLE from 10 months ago
0 METEOR 2-6 DEB
1 38837U 80073P   25320.62169560  .00394388  00000-0  14334-1 0  9995
2 38837  81.1983  85.0420 0016974 297.7960  77.8612 15.26433172651442
Epoch: 2025-11-16T14:55Z
TLE epoch observation values (Epoch: 2025-11-16T14:55:14.499Z)
Latitude
15.63431°
Longitude
167.76751°
Altitude
486.416 km
Speed
7.625 km/s
True Right ascension
05h 50m 02s
True Declination
15° 32' 30"
Sunlit
Object was in full shadow at epoch
Visualization orbit readout
Latitude
Unknown
Longitude
Unknown
Altitude
Unknown
Speed
Unknown
Apparent Right ascension
Unknown
Apparent Declination
Unknown
Sunlit
N/A
Visualization observer readout
Local Sidereal Time
11:53:43
Azimuth
Unknown
Elevation
Unknown
Doppler factor
Unknown
Orbital elements
Apogee altitude
495.155 km
Perigee altitude
471.861 km
Semi-major axis
6,861.645 km
Eccentricity
0.0017
Inclination
81.1983°
RAAN
85.042°
Arg. of periapsis
297.796°
True anomaly
78.05144°
Mean anomaly
77.8612°
Eccentric anomaly
77.95631°
Mean motion
3.81857 °/min
Orbital period
94.28 mins
BSTAR
0.014334
Loading maneuver chart data...
Computing Atmospheric mass density...
Loading historical data...
Loading historical data...
Loading historical data...
Loading historical data...
Loading historical data...
Loading historical data...
Loading historical data...

Documentation

Showing up to 5 results
|